Theta_e
314 314 315 315 315 315 314 315 316 317 319 320 322 322 323 323 323 323 324 325 326 324 323 325 325 323 321 321 324 324 320 320 321 321 320 321 322 322 322 322 322 320 318 315 311 308 305 301 299 298 298 298 298 297 297 297 296 295 294 294 294 294 294 294 294 294 294 293 293 293 293 293 293 293 293 293 292 292 291 291 290 289 288 288 288
312 313 313 314 315 315 315 316 316 317 319 319 320 320 320 320 320 321 321 322 323 322 323 326 324 321 322 324 323 322 321 320 321 321 321 321 322 321 322 322 319 315 313 311 308 304 301 299 298 298 297 297 297 296 296 296 295 294 294 294 293 293 293 293 293 294 294 294 293 293 293 293 293 293 292 292 292 292 291 290 289 288 288 288 288
311 311 311 312 313 314 315 315 316 316 317 316 317 316 316 317 318 320 320 321 323 324 325 326 322 321 324 324 321 321 322 322 322 321 321 321 322 321 320 317 313 311 310 307 304 301 299 298 298 297 297 297 296 296 295 295 294 294 294 293 293 293 293 293 293 294 294 293 293 293 293 292 292 292 292 292 292 291 291 290 289 288 288 288 288
310 310 310 311 312 312 313 313 314 314 314 314 314 314 314 317 319 320 321 322 323 323 323 322 322 323 324 321 320 320 321 321 322 321 319 319 318 316 314 312 310 308 306 303 300 298 298 297 297 297 297 297 296 295 295 294 294 293 293 293 293 293 293 293 293 293 293 292 292 292 292 292 291 291 291 291 291 291 291 290 290 289 288 287 287
311 310 310 310 311 311 311 312 312 312 312 312 312 312 314 316 318 320 322 322 321 320 321 323 324 323 322 321 319 319 319 320 321 319 318 317 314 311 310 309 307 304 301 299 298 297 297 297 297 297 297 296 295 294 294 294 293 293 292 292 292 292 292 292 292 292 292 292 291 291 291 291 291 290 290 290 291 291 291 290 290 289 288 287 287
312 311 311 310 310 311 310 311 310 310 310 310 311 313 314 316 318 320 321 319 318 320 322 325 325 323 322 322 320 319 319 319 318 318 318 315 311 308 308 306 303 300 298 297 297 297 297 297 297 296 296 295 294 294 293 293 292 292 292 292 292 292 292 292 291 291 291 291 291 291 290 290 290 290 289 289 289 289 290 291 291 289 287 287 287
312 312 312 311 311 310 310 310 310 310 309 310 313 315 315 316 317 318 318 319 320 321 323 324 323 322 322 322 321 319 319 318 317 316 314 311 308 307 305 302 300 298 297 297 297 297 297 296 296 295 295 294 294 293 293 292 292 292 292 292 292 291 291 291 291 291 290 290 290 290 290 289 289 289 288 288 287 287 288 289 290 289 287 287 286
313 313 312 312 312 311 311 311 310 310 310 311 314 314 313 315 318 318 320 322 323 323 323 323 321 320 318 318 319 318 317 316 314 311 309 307 306 303 301 299 298 298 297 297 297 296 296 295 295 294 294 293 293 292 292 292 291 291 291 291 291 291 290 290 290 290 290 290 289 289 288 288 288 288 287 287 287 287 286 286 287 287 287 287 286
314 314 314 314 313 313 313 312 311 311 310 312 313 312 314 318 321 322 322 322 322 322 321 320 319 317 317 317 317 316 314 311 309 308 307 305 302 300 298 298 297 297 297 297 296 296 295 295 294 294 293 293 292 292 292 291 291 291 291 291 290 290 290 290 290 290 289 289 288 288 287 287 287 287 286 286 286 286 286 286 286 286 286 286 286
314 314 314 314 314 314 313 312 313 311 310 313 314 314 315 318 319 320 320 319 319 319 318 317 317 316 316 315 314 312 309 308 306 304 303 302 300 298 297 297 297 296 296 296 295 295 294 294 294 293 292 292 292 292 291 291 291 290 290 290 290 290 290 289 289 289 288 288 287 287 286 286 286 286 285 285 285 285 285 285 285 286 286 286 286
314 314 314 314 314 314 314 313 314 312 311 314 317 317 318 319 318 318 318 317 317 317 316 316 315 314 313 312 310 309 307 305 303 300 298 298 297 297 297 296 296 296 296 295 295 294 294 293 293 292 292 292 291 291 291 290 290 290 290 290 290 289 289 289 288 288 287 287 286 286 285 285 285 285 285 285 285 285 284 284 285 285 285 285 286
314 314 314 314 313 314 314 313 314 314 312 314 315 316 317 319 319 318 317 316 315 315 315 314 312 310 310 309 308 307 305 302 299 297 296 295 295 295 296 296 295 295 295 295 294 294 293 292 292 292 292 291 291 291 290 290 290 290 290 289 289 288 288 288 287 287 286 286 285 285 285 285 285 284 285 285 285 284 284 284 284 284 284 285 284
313 313 313 314 313 314 314 313 314 314 314 314 315 316 316 316 316 315 315 315 314 315 314 312 310 309 309 308 307 305 302 300 297 296 295 295 295 295 295 295 295 295 294 294 293 293 292 292 292 291 291 291 290 290 290 290 290 289 289 289 288 288 288 287 287 286 286 285 285 284 284 284 284 284 284 284 284 284 284 284 284 284 284 284 284
313 313 313 313 313 313 313 314 314 314 314 314 315 315 315 314 314 313 314 314 315 315 313 310 309 309 308 307 305 303 300 298 297 296 295 295 294 294 294 295 294 294 294 293 293 292 292 292 291 291 291 290 290 290 290 290 289 289 289 288 288 288 287 287 286 286 285 285 284 284 284 284 284 284 284 284 284 284 284 284 284 284 284 284 284
313 313 313 313 313 313 313 313 313 313 314 314 314 314 314 314 314 314 314 315 314 312 310 309 309 308 306 305 303 301 299 297 296 295 294 294 294 294 294 294 294 293 293 292 292 292 292 291 291 290 290 290 290 290 290 289 289 289 288 288 288 287 287 287 286 286 285 285 284 284 284 284 284 284 284 284 283 283 283 283 283 284 284 284 285
313 313 313 313 313 313 313 313 313 313 313 314 314 314 314 314 314 315 314 313 311 310 309 308 308 307 305 303 301 299 297 296 295 294 294 294 294 294 294 294 293 293 292 292 292 291 291 290 290 290 290 290 290 290 289 289 289 288 288 288 288 287 287 286 286 285 285 284 284 283 283 283 283 283 283 283 283 283 283 283 283 283 283 284 284
313 313 313 313 313 313 313 313 313 313 313 313 313 314 314 314 314 314 312 311 310 309 308 307 306 305 304 301 299 297 296 295 294 294 294 294 294 294 293 293 292 292 292 291 291 291 290 290 290 290 290 290 289 289 289 289 288 288 288 288 287 287 287 286 286 285 285 284 283 283 283 283 283 283 283 283 283 283 283 283 283 283 282 282 283
313 313 313 313 312 313 313 312 312 312 312 313 313 313 313 313 313 312 311 310 309 308 307 306 304 302 301 299 297 295 295 295 294 294 293 293 293 293 293 292 292 292 291 291 290 290 290 290 290 289 289 289 289 289 289 288 288 288 288 288 287 287 287 286 286 285 284 284 283 282 282 282 282 282 282 282 282 282 282 282 282 282 281 281 281
312 313 312 313 313 312 312 312 312 312 312 312 312 312 312 312 312 311 309 309 308 307 306 305 303 300 297 296 295 294 294 294 294 293 293 293 293 293 292 292 292 291 291 290 290 290 290 289 289 289 289 289 289 288 288 288 288 288 288 288 287 287 287 286 286 285 284 283 282 282 282 282 281 281 281 282 282 282 282 281 281 281 280 281 281
312 312 312 312 312 312 312 312 312 312 312 312 312 312 312 312 311 310 309 308 307 306 305 303 301 298 296 294 293 293 293 293 293 293 293 293 293 292 292 292 292 291 291 290 290 290 289 289 289 289 289 289 288 288 288 288 288 288 287 287 287 287 286 286 285 284 283 283 282 282 281 281 281 281 281 281 281 281 281 281 280 280 280 280 280
312 312 312 312 312 312 312 312 312 312 311 311 311 311 311 311 310 309 308 307 306 305 304 301 298 296 295 293 293 292 292 292 293 293 293 292 292 292 292 291 291 291 290 290 290 289 289 289 289 288 288 288 288 288 287 287 287 287 287 287 287 286 286 285 284 284 283 282 282 282 281 281 280 280 280 280 280 280 280 280 280 280 279 279 280
312 312 311 311 312 311 311 311 311 311 311 311 311 311 310 309 309 308 307 307 306 304 302 300 297 295 294 293 292 292 292 292 292 292 292 292 292 291 291 291 290 290 290 290 289 289 289 288 288 288 288 288 287 287 287 287 287 287 287 287 286 286 285 284 284 283 283 282 282 282 281 281 281 280 280 279 279 279 279 280 280 279 279 279 279
311 311 311 311 311 311 311 311 311 311 311 311 310 310 309 309 308 307 306 306 305 303 300 298 296 294 293 293 292 292 292 292 292 292 292 291 291 291 291 290 290 290 289 289 289 289 288 288 288 287 287 287 287 287 287 287 286 286 286 286 285 285 284 284 283 283 283 282 282 282 281 281 281 280 280 279 278 278 278 279 279 279 279 279 279
311 311 311 311 311 310 310 310 310 310 310 310 310 309 309 308 307 307 306 305 305 302 299 296 294 293 293 292 292 292 292 292 292 291 291 291 291 290 290 290 290 289 289 289 289 288 288 288 287 287 287 287 287 287 286 286 286 286 286 285 285 284 284 283 283 283 282 282 282 282 281 281 281 280 280 279 278 278 278 277 278 278 279 279 279
311 311 311 311 310 310 310 310 310 310 310 310 309 309 308 307 307 306 305 305 303 301 298 295 293 293 293 292 292 292 292 291 291 291 291 291 290 290 290 290 290 289 289 289 288 288 287 287 287 287 287 286 286 286 286 286 286 286 285 285 284 284 283 283 283 282 282 282 282 281 281 281 280 280 279 279 278 278 278 278 277 277 278 278 279
310 310 310 310 310 310 310 309 309 309 309 309 308 308 307 307 307 306 306 304 302 299 297 295 293 293 293 292 292 292 292 292 291 291 291 291 290 290 290 291 290 289 288 288 288 287 287 287 287 286 286 286 286 286 286 286 286 285 285 284 284 283 283 283 282 282 282 282 281 281 280 280 280 279 278 278 278 278 278 278 278 278 277 277 278
310 310 310 310 309 309 309 309 309 309 309 308 308 307 306 306 306 306 306 304 301 298 295 294 293 293 293 292 292 292 292 291 291 291 291 290 290 291 292 291 290 289 288 288 287 287 287 287 286 286 286 286 286 286 286 285 285 285 284 284 283 283 282 282 282 282 282 281 281 280 280 279 279 279 278 278 278 278 278 278 278 278 278 277 277
309 309 309 309 309 309 309 309 309 309 308 308 308 307 306 306 306 306 306 305 303 299 296 294 294 294 294 293 292 292 291 291 291 291 291 291 292 294 293 291 289 288 288 287 287 287 287 286 286 286 286 285 285 285 285 285 285 284 284 283 283 282 282 282 282 281 281 281 280 280 279 279 279 278 278 278 278 278 278 278 278 277 277 277 277
309 309 309 308 308 308 308 308 308 308 308 307 307 307 306 306 306 305 304 303 301 300 298 296 295 294 294 293 293 292 291 291 291 291 291 293 295 294 292 289 288 288 287 287 287 287 286 286 286 286 285 285 285 285 285 284 284 283 283 283 282 282 282 281 281 281 280 280 280 280 279 279 278 278 278 277 277 277 277 277 277 277 277 277 276
309 309 308 308 308 308 308 308 307 307 307 307 306 306 305 305 304 303 301 299 297 296 295 295 295 294 294 293 292 292 292 292 291 291 292 294 294 292 289 288 287 287 287 286 286 286 286 286 286 286 285 285 285 285 284 284 283 283 282 282 282 281 281 281 280 280 280 280 280 279 279 278 278 278 278 277 277 277 277 277 277 276 276 276 276
308 308 308 308 308 307 307 307 307 307 306 306 306 305 305 304 303 300 298 295 294 293 292 292 293 293 292 292 291 291 291 290 290 292 294 294 292 290 288 287 287 287 287 286 286 286 286 286 286 285 285 285 284 284 284 283 283 282 282 281 281 281 281 280 280 280 279 279 279 279 278 278 277 277 277 277 277 277 276 276 276 276 276 276 276
307 307 307 307 307 306 306 306 306 306 306 305 305 305 304 304 302 299 295 293 291 291 291 291 292 291 291 291 290 290 290 290 290 293 297 295 291 288 287 287 287 286 286 286 286 286 286 286 285 285 285 285 284 284 283 282 282 282 281 281 281 281 280 280 279 279 279 279 279 278 278 277 277 277 277 277 277 276 276 276 276 276 275 275 275
306 306 306 306 305 305 305 305 305 305 305 305 304 304 304 303 302 299 296 293 291 290 291 291 291 291 290 290 290 289 289 289 290 294 297 295 290 287 287 287 286 286 286 286 286 286 286 285 285 285 285 284 284 283 283 282 281 281 281 281 281 280 280 279 279 279 279 278 278 278 277 277 277 276 276 276 276 276 276 276 275 275 275 275 275
304 304 304 304 304 304 304 304 304 304 304 304 304 303 303 303 301 299 296 294 292 291 291 290 290 290 290 289 289 289 289 288 290 294 296 293 288 287 287 286 286 286 285 285 285 285 285 285 285 285 284 284 283 283 282 282 281 281 281 281 280 280 280 279 279 279 278 278 277 277 277 277 276 276 276 276 276 276 276 275 275 275 275 275 275
303 303 303 303 303 303 302 302 302 302 302 302 302 302 302 302 300 298 296 294 293 293 292 291 291 290 290 290 289 289 289 288 290 293 295 292 288 286 286 286 286 286 286 286 285 285 285 285 285 284 284 284 283 283 282 281 281 281 280 280 280 279 279 279 278 278 278 277 277 277 276 276 276 276 276 276 276 276 275 275 274 274 274 274 274
303 302 302 302 302 301 301 301 301 301 301 301 301 301 300 300 298 297 295 293 292 292 292 291 291 290 290 289 289 288 288 288 290 293 295 291 287 286 286 286 286 286 286 286 285 285 285 285 284 284 284 284 283 282 281 281 281 280 280 280 279 279 279 278 278 278 277 277 277 276 276 276 276 276 276 276 276 276 275 275 274 274 274 274 274
302 302 301 301 300 300 300 300 300 300 299 299 298 298 298 297 296 295 293 292 291 291 291 291 291 290 290 290 289 288 288 288 290 293 294 290 286 285 286 286 286 286 286 285 285 285 285 284 284 284 284 283 283 282 281 281 280 280 280 279 279 278 278 278 277 277 277 277 276 276 276 275 275 275 275 275 275 275 275 275 274 274 273 273 273
301 301 300 300 299 299 299 299 298 298 298 298 297 296 296 295 294 293 292 292 291 290 290 290 290 290 290 290 290 289 288 288 290 293 292 289 286 286 286 286 285 285 285 285 284 284 284 284 284 284 284 283 283 282 281 280 280 280 280 279 279 278 278 277 277 277 277 276 276 276 275 275 275 275 275 275 275 275 275 275 274 274 274 273 273
301 300 300 299 299 299 298 298 297 297 297 296 296 295 294 293 293 292 291 291 290 290 290 290 290 290 290 290 289 289 289 289 290 292 293 291 288 286 286 286 286 286 285 285 284 284 284 284 284 283 283 283 282 282 281 280 280 280 279 279 278 278 277 277 277 276 276 276 275 275 275 275 274 274 274 274 275 275 275 274 274 274 274 273 273
301 300 299 299 299 298 297 297 297 296 296 296 295 294 293 292 292 291 290 290 289 289 289 290 290 290 290 289 289 289 289 289 290 292 293 292 289 287 287 287 287 286 285 285 284 284 284 283 283 283 282 282 282 281 281 280 280 279 279 278 278 277 277 277 276 276 276 275 275 275 275 274 274 274 274 274 274 274 274 274 274 274 274 273 273
301 300 300 299 298 297 297 297 296 296 295 295 294 294 293 292 291 290 290 289 289 289 289 289 289 289 289 289 289 289 289 289 289 290 291 292 290 288 287 287 287 286 285 285 284 284 284 283 283 282 282 282 281 281 280 280 280 279 279 278 277 277 277 276 276 275 275 275 275 274 274 274 274 274 273 273 273 274 274 274 274 274 274 273 273
300 300 299 298 298 298 297 296 296 294 294 293 293 293 292 291 290 289 289 289 288 288 288 288 288 288 288 288 288 287 287 288 288 288 289 289 289 288 287 286 286 286 285 285 284 284 283 283 282 282 281 281 281 281 280 280 279 279 278 278 277 276 276 276 275 275 275 274 274 274 274 274 273 273 273 273 273 273 273 273 273 273 273 273 273
299 299 299 299 298 298 297 296 295 294 294 293 292 291 290 290 289 289 288 288 288 287 287 288 288 287 287 287 287 287 287 287 287 287 287 287 288 289 288 286 285 285 285 284 284 283 283 282 282 282 281 281 280 280 280 279 278 278 278 277 277 276 276 275 275 275 274 274 274 274 273 273 273 273 273 273 273 273 273 273 273 273 273 273 273
298 298 298 298 298 298 297 296 296 295 294 293 292 291 290 289 288 288 287 287 287 287 286 287 286 286 286 286 286 286 286 286 286 286 286 286 287 288 288 286 286 285 284 283 283 283 282 282 282 281 281 280 280 280 279 278 278 278 277 277 276 276 275 275 274 274 274 274 273 273 273 273 273 273 273 272 272 273 273 272 272 272 273 273 273
295 296 296 297 297 297 297 296 295 295 294 293 293 292 291 289 288 288 287 286 286 286 286 286 286 286 286 286 286 286 286 286 286 286 286 286 287 288 288 288 287 286 284 283 282 282 282 281 281 281 280 280 280 280 279 278 277 277 276 276 276 275 275 274 274 274 273 273 273 273 273 273 273 272 272 272 272 272 272 272 272 272 272 272 272
294 294 294 294 295 295 295 295 295 294 294 293 293 292 291 290 289 288 287 286 286 285 285 285 285 285 285 285 285 285 285 285 285 285 286 286 287 288 288 288 286 285 283 282 282 282 282 282 281 281 280 280 280 279 278 277 277 276 276 276 275 275 274 274 274 274 273 273 273 272 272 272 272 272 272 272 272 272 272 272 272 272 272 272 272
292 293 293 293 293 293 293 293 293 293 293 293 293 292 291 291 290 289 288 287 286 285 285 284 284 284 284 284 284 284 284 284 284 284 285 286 286 286 286 286 286 285 283 282 282 282 282 281 281 280 280 280 279 278 277 277 277 276 276 276 275 274 274 274 273 273 273 273 272 272 272 272 272 272 271 271 271 272 272 272 271 271 271 271 271
290 290 291 291 291 292 292 292 292 292 292 292 292 291 291 290 290 289 288 287 286 286 285 285 284 284 284 284 284 284 284 284 284 284 285 285 285 286 286 287 286 285 283 283 282 282 281 281 281 280 280 279 278 277 277 277 277 276 276 275 274 274 273 273 273 273 273 272 272 272 272 272 272 271 271 271 271 271 271 271 271 271 271 271 271
289 289 289 289 289 290 290 290 290 290 290 291 291 291 290 290 290 289 288 287 286 285 285 284 284 284 283 283 284 284 284 284 284 284 285 285 285 285 286 285 284 284 283 282 282 281 281 281 281 280 278 278 277 277 277 277 276 276 275 274 274 274 273 273 273 273 272 272 272 272 271 271 271 271 271 271 271 271 271 271 271 271 271 270 270
288 288 288 288 288 288 288 288 289 289 289 289 289 289 289 289 289 289 288 287 287 286 285 284 283 283 283 282 282 282 283 283 283 284 284 284 284 284 283 283 283 283 283 282 281 281 281 280 280 279 278 277 277 276 276 276 276 275 274 274 273 273 273 273 273 272 272 272 272 271 271 271 271 271 271 271 271 271 271 271 271 271 270 270 270
287 287 287 287 287 287 287 287 287 287 288 288 288 288 288 288 288 288 287 287 287 286 285 284 283 282 282 281 281 281 281 281 282 282 282 282 282 283 283 283 283 283 282 281 281 281 280 280 279 278 277 277 276 276 276 276 275 274 274 273 273 273 273 273 272 272 272 272 271 271 271 271 271 271 271 270 270 270 270 270 270 270 270 270 270
Wind_Speed
26 27 27 27 27 27 27 27 26 25 25 24 25 24 24 25 24 23 22 21 22 22 21 21 21 20 21 22 23 20 19 20 21 21 21 22 22 22 21 20 19 20 19 16 13 11 11 10 9 8 7 6 5 5 7 9 10 11 12 14 14 15 16 17 19 21 20 21 24 25 27 30 32 34 37 39 41 42 44 44 45 45 44 44 44
23 24 24 24 24 24 24 24 24 24 24 24 24 24 24 24 23 23 23 22 22 20 20 21 21 20 21 21 18 14 15 18 21 21 21 22 21 20 19 19 18 17 14 13 13 13 12 10 9 8 6 6 5 6 8 10 11 12 13 13 14 14 15 16 18 21 21 21 23 25 26 29 32 34 37 39 41 43 44 45 45 44 44 44 44
20 21 21 21 21 21 21 21 21 22 22 23 23 23 23 23 22 21 21 21 20 20 21 21 21 22 22 18 14 13 16 20 20 18 18 20 21 21 20 18 15 13 13 14 14 13 12 10 9 7 6 5 6 7 9 10 11 13 13 13 13 13 14 16 18 20 22 23 24 26 28 29 32 35 37 39 41 43 45 45 45 45 44 44 43
16 17 18 18 18 19 19 19 20 21 21 22 22 23 22 21 21 20 20 21 23 23 22 20 21 23 19 14 14 16 19 22 21 18 17 18 18 19 18 16 14 14 15 15 15 13 11 9 8 7 6 6 7 9 10 11 12 12 13 12 12 13 14 15 17 20 22 24 25 27 29 30 32 35 38 40 41 43 44 45 46 45 45 45 44
12 12 13 14 15 16 17 18 19 20 21 21 21 21 20 20 20 20 21 23 22 21 20 21 23 22 18 17 16 17 20 22 21 19 18 17 16 16 17 16 17 17 17 16 14 11 10 8 7 7 7 8 9 10 11 12 12 12 12 12 12 13 14 15 17 19 21 23 25 26 28 30 32 34 37 40 42 44 45 46 47 48 47 46 45
10 10 11 12 13 14 15 17 17 17 18 18 18 19 19 19 20 21 21 20 18 19 22 25 25 22 22 21 18 17 19 20 20 20 19 18 17 18 18 19 19 18 17 15 12 10 9 8 7 7 8 9 9 11 12 12 12 12 11 12 13 14 15 16 17 19 21 23 25 27 29 30 33 34 36 39 42 44 48 50 51 50 50 49 47
10 10 10 11 12 13 14 14 14 15 15 16 18 18 18 18 19 19 19 17 18 22 27 26 23 20 20 21 20 19 19 21 20 19 19 19 20 20 20 20 19 17 15 13 11 10 9 8 7 7 8 9 10 12 12 12 12 11 12 13 13 14 15 16 18 20 22 23 25 28 29 31 33 34 36 38 40 42 45 49 52 53 52 51 48
11 11 11 11 11 12 12 13 13 14 15 17 18 18 17 17 17 17 17 19 21 24 26 23 21 21 21 22 23 23 22 21 19 19 21 22 22 21 20 19 17 15 14 12 11 10 8 7 7 8 9 10 11 12 12 11 11 12 12 13 13 14 16 17 19 21 23 25 27 29 30 31 33 35 36 38 40 41 42 44 48 52 53 53 50
12 12 12 12 12 12 13 14 14 15 16 17 18 17 16 17 18 18 19 22 23 23 23 24 24 25 25 24 23 21 20 20 21 21 23 22 22 20 19 17 15 14 13 12 11 9 7 7 8 9 10 11 11 11 11 11 11 11 12 13 14 15 17 18 20 22 24 26 28 29 31 32 33 35 37 38 38 40 40 41 45 49 51 53 52
14 14 14 14 14 14 15 15 16 16 16 17 16 15 16 18 20 22 22 22 24 25 26 26 25 24 22 21 21 21 22 22 22 22 22 21 20 19 17 16 16 14 13 11 8 7 7 8 9 10 11 11 11 11 11 11 11 11 12 14 15 16 18 19 21 22 24 26 27 29 31 31 32 34 36 36 35 37 39 41 45 48 50 53 53
15 15 16 16 16 16 16 16 16 16 16 18 18 17 18 19 20 22 22 23 25 26 25 23 21 19 20 21 22 24 24 24 23 23 21 19 18 18 17 16 15 13 11 8 7 7 8 9 10 10 11 11 11 11 10 10 11 11 13 14 15 17 18 19 21 23 24 26 27 28 29 31 31 31 33 34 35 36 37 39 42 45 48 51 53
17 17 17 17 17 17 17 17 16 15 15 17 20 20 22 24 24 23 24 25 25 25 22 20 20 20 22 23 24 25 25 25 24 23 21 20 19 18 17 15 13 11 9 8 8 8 9 10 10 11 11 10 10 10 10 10 11 11 12 13 15 16 18 20 22 23 24 25 26 27 27 29 30 29 30 33 35 36 37 38 40 42 45 47 49
18 18 18 17 18 17 17 17 16 16 16 17 20 22 23 24 25 26 26 26 25 23 21 21 23 23 24 25 25 26 26 25 24 23 22 21 20 18 16 14 12 10 9 9 9 9 10 10 11 11 10 10 9 9 9 10 10 11 12 13 15 16 18 20 21 22 24 25 25 25 25 27 28 28 29 30 32 35 37 38 40 41 43 45 45
19 19 19 18 18 18 17 17 17 18 19 20 22 24 24 25 25 26 26 25 24 23 23 24 24 25 25 26 26 26 26 25 24 23 23 22 20 18 16 14 12 11 10 10 10 10 10 11 11 10 9 9 8 8 9 9 10 11 12 13 15 17 18 19 20 21 22 23 24 24 24 25 27 28 28 28 30 32 34 36 38 40 42 43 43
21 21 20 19 19 19 18 19 20 20 22 23 24 25 26 27 27 26 25 24 23 24 25 25 26 26 27 26 26 26 26 25 25 24 23 22 20 18 16 14 13 12 11 11 10 11 11 11 10 9 8 8 8 8 9 9 10 11 12 13 15 17 18 19 21 22 22 22 23 23 23 24 25 26 27 27 28 29 30 32 34 36 39 41 42
24 23 22 21 21 21 21 21 22 22 23 24 25 26 27 27 27 25 24 25 25 26 26 26 27 27 27 27 27 26 26 26 25 25 23 22 20 18 16 14 13 12 11 11 11 11 11 10 9 9 8 8 8 8 9 9 10 10 12 13 15 17 18 19 21 21 22 22 22 23 23 23 23 24 25 25 26 28 29 31 32 33 36 40 42
26 25 24 24 24 24 24 24 23 23 24 24 25 25 26 26 26 26 26 27 27 27 27 28 28 27 27 28 27 27 27 27 26 25 23 21 19 17 16 15 14 12 12 12 11 11 10 9 9 8 8 8 8 8 9 9 9 10 12 13 14 16 17 19 20 21 22 22 22 22 22 22 22 22 23 23 25 27 30 31 32 32 34 37 40
28 27 25 25 25 25 25 25 25 24 24 24 24 24 24 25 26 26 27 27 27 28 29 29 28 28 28 27 27 27 27 27 27 25 23 21 19 17 16 15 14 13 12 12 12 11 10 10 9 9 9 9 8 8 8 9 9 10 12 13 14 16 18 19 20 21 21 22 21 21 22 22 22 21 21 22 24 26 28 29 30 31 32 33 35
28 27 25 25 24 24 24 25 24 24 23 23 23 24 25 26 27 27 27 27 28 29 29 29 29 29 29 28 28 28 28 27 26 24 22 21 19 18 16 15 14 13 13 13 12 11 11 10 10 9 9 9 9 8 8 9 10 11 12 14 15 17 18 20 21 21 22 22 22 22 22 22 21 21 21 23 24 25 26 27 28 28 29 31 32
27 26 25 24 24 24 24 24 23 23 23 24 25 26 27 27 27 28 28 29 29 30 30 30 30 30 30 30 30 30 28 27 26 24 22 21 20 18 17 15 14 14 14 13 12 12 11 11 10 10 10 10 10 9 9 9 10 11 13 14 16 17 18 20 21 22 23 23 23 24 23 22 22 22 22 24 24 25 25 25 25 26 27 29 30
25 25 25 25 25 24 24 23 23 24 24 25 26 27 28 28 28 29 29 30 31 31 31 32 32 32 32 32 32 31 29 27 25 24 23 22 20 19 17 16 15 15 14 14 13 13 12 12 11 11 10 10 10 9 9 10 11 12 13 15 16 17 18 20 21 21 22 23 24 24 24 23 23 23 23 24 24 24 24 24 24 25 25 26 28
25 25 26 26 25 24 24 24 24 25 26 27 28 28 28 29 29 29 30 31 32 33 33 34 34 34 34 34 33 32 30 28 27 25 24 22 21 19 18 17 16 15 15 14 14 14 13 12 12 11 10 10 9 9 10 10 11 12 13 15 16 17 18 19 20 21 22 23 24 24 25 24 24 24 24 25 25 25 24 24 24 24 24 24 25
25 25 26 26 25 24 24 24 25 26 27 28 28 28 29 29 30 31 32 33 34 35 35 36 36 36 36 36 35 33 31 30 28 26 24 22 21 20 19 18 17 16 15 15 15 14 14 13 12 11 10 10 10 10 10 11 11 12 13 14 15 17 18 18 20 21 22 23 24 24 25 25 26 26 27 27 27 26 25 25 25 25 25 25 24
26 26 26 26 25 25 25 25 25 26 27 28 28 28 29 31 32 33 34 35 35 36 37 38 38 38 37 36 36 34 33 31 29 27 25 23 21 21 19 18 17 17 17 17 16 15 14 13 12 11 10 10 10 10 10 11 11 12 13 14 15 16 17 18 19 20 21 22 23 24 25 26 27 28 28 28 28 28 27 26 26 26 26 26 26
26 26 26 26 25 25 25 25 26 26 27 28 29 30 31 32 34 35 36 37 38 38 39 39 39 38 38 36 36 35 33 32 30 28 26 24 23 21 19 18 18 18 19 18 17 16 15 13 12 12 11 10 10 10 10 10 11 12 12 13 14 15 16 17 18 20 21 22 23 24 25 26 26 27 27 27 28 28 29 28 27 27 28 28 27
24 25 25 25 25 25 25 25 26 26 27 29 30 30 32 33 35 37 38 39 39 39 39 39 39 39 38 37 36 35 34 33 30 28 27 26 24 21 19 19 21 21 21 20 18 17 15 14 13 12 11 11 11 11 11 11 11 11 12 13 13 14 16 17 18 19 21 22 23 24 24 25 25 25 25 26 27 28 30 31 30 30 30 30 30
22 23 23 24 24 24 24 25 26 28 29 31 31 32 34 35 37 38 39 40 41 41 41 40 39 39 39 38 37 36 34 33 31 29 28 25 23 21 21 23 24 24 23 21 19 17 16 15 14 13 12 12 11 11 11 11 11 11 11 12 13 14 15 17 18 19 21 22 23 23 24 24 24 24 24 25 26 28 29 31 31 32 32 32 32
20 21 22 22 23 24 25 26 27 29 30 32 33 35 36 38 39 40 40 40 41 41 41 41 40 40 39 39 38 37 35 33 31 28 26 23 21 22 24 26 26 25 23 21 19 17 16 16 15 14 13 13 13 12 12 11 10 10 11 12 13 14 15 16 18 19 20 21 22 23 23 23 24 24 24 25 25 27 28 29 30 31 31 32 32
19 20 21 22 23 24 25 26 28 29 31 33 35 36 37 39 40 40 40 39 39 39 39 39 38 38 38 38 37 36 35 33 30 26 23 21 22 23 25 27 26 25 23 22 20 18 17 17 16 15 14 14 14 13 11 10 10 10 11 12 13 14 15 16 17 17 19 20 21 22 23 23 23 24 24 24 24 25 27 28 28 30 30 30 31
18 20 22 23 24 25 26 27 29 30 32 34 36 37 39 39 40 41 40 40 40 40 39 37 37 36 37 36 35 34 32 28 26 24 22 21 23 25 27 27 26 25 25 23 21 20 19 19 18 17 16 16 15 13 11 10 10 10 11 12 13 14 14 15 16 16 18 19 21 22 23 23 23 24 24 25 25 25 26 27 27 28 29 30 31
18 20 21 23 24 25 26 27 29 30 33 35 36 38 40 41 42 42 42 42 42 41 40 39 37 37 36 35 34 32 30 26 24 23 23 23 26 29 30 30 29 28 26 24 22 22 21 20 19 18 18 17 15 13 11 10 10 11 12 12 13 14 14 15 16 16 17 19 20 21 22 22 23 23 24 25 25 25 25 26 26 27 28 29 30
19 20 21 23 24 24 26 27 29 31 33 36 38 40 42 43 44 44 44 44 43 42 41 39 38 37 37 35 34 33 31 28 26 26 27 27 29 31 32 32 31 29 27 26 25 24 23 22 21 20 19 17 15 13 12 11 11 12 12 13 13 14 14 15 15 16 17 18 19 20 21 22 22 23 23 25 25 25 25 26 26 26 27 27 28
19 20 21 23 24 25 26 28 30 32 34 36 39 41 42 44 44 44 45 45 44 42 41 40 40 39 38 37 35 33 31 30 30 30 31 31 33 34 33 33 32 31 30 29 28 26 25 24 22 21 20 18 16 14 13 12 12 12 13 13 14 14 14 15 15 16 16 17 18 19 20 21 22 22 23 23 24 25 25 25 25 26 26 27 28
19 20 21 22 24 25 26 28 30 32 34 37 39 41 42 43 44 45 45 45 44 44 43 43 42 41 40 38 36 35 34 34 34 34 34 34 35 36 35 34 33 34 33 31 29 28 27 25 24 22 21 19 17 15 14 13 13 13 13 14 14 14 14 14 15 15 16 16 17 18 19 20 21 22 22 23 23 24 24 24 24 25 25 26 27
19 20 21 22 23 25 26 27 29 31 34 36 38 40 42 42 44 45 45 45 45 44 44 44 44 42 41 40 39 39 39 39 38 37 37 37 37 38 37 37 37 38 37 34 31 30 29 27 25 24 22 20 18 16 15 15 14 14 14 14 14 14 14 14 14 15 15 16 16 17 18 19 20 21 21 22 23 23 24 23 23 24 24 25 26
19 20 21 21 22 23 24 26 27 29 31 34 36 38 40 42 44 45 46 46 46 45 44 45 44 44 44 43 43 42 42 41 39 38 39 40 39 40 41 41 41 41 38 35 32 32 30 28 27 25 23 21 20 18 17 16 15 15 15 15 15 15 15 14 14 14 14 15 15 16 17 18 19 19 20 21 21 22 23 23 23 22 23 24 24
18 19 19 20 21 22 23 24 26 28 29 32 34 37 40 42 44 45 46 47 47 46 46 47 46 47 47 46 46 45 43 41 40 40 41 41 41 42 44 43 42 40 37 35 34 33 32 30 28 27 25 23 21 20 18 17 17 16 16 15 15 15 15 15 14 14 14 14 15 15 16 16 17 18 19 20 20 21 21 22 22 22 22 22 23
17 18 19 19 20 21 22 24 26 28 30 32 34 36 39 42 44 46 47 48 48 48 49 48 48 49 49 48 47 46 45 44 44 43 44 44 45 46 46 45 43 40 38 37 36 35 33 31 30 28 27 25 23 21 19 18 18 18 17 17 16 15 15 15 14 14 13 13 14 14 14 15 16 17 18 19 19 20 21 21 22 22 21 21 22
17 18 18 19 20 21 22 24 26 28 30 32 34 37 39 42 44 46 48 49 50 50 50 50 50 50 50 49 49 48 48 49 48 46 45 46 47 48 48 46 44 42 41 39 38 36 34 33 31 30 28 26 24 22 21 20 19 19 18 18 17 16 16 15 14 14 13 13 13 13 14 14 15 16 17 18 19 20 20 20 21 21 22 22 21
17 17 18 19 20 21 22 24 26 27 30 32 34 37 39 41 44 46 48 49 51 51 51 52 52 51 51 52 52 51 51 51 50 46 44 45 47 48 48 46 45 44 42 40 39 36 34 33 32 30 28 27 25 23 22 21 20 20 19 18 18 17 16 16 15 14 13 13 13 14 14 14 14 15 16 17 18 19 20 20 20 21 21 22 21
16 17 19 20 21 22 23 24 26 28 29 31 34 36 38 40 42 45 47 49 51 52 52 53 53 53 53 53 53 52 52 51 50 48 45 44 45 47 47 45 44 43 41 39 37 36 35 34 32 30 29 27 26 25 24 22 22 21 20 19 18 17 17 17 16 14 14 13 14 14 14 14 15 15 15 16 17 18 19 19 20 20 21 21 21
16 17 18 19 21 22 24 25 26 27 29 31 33 36 37 39 41 44 46 48 50 52 53 54 54 54 54 53 52 52 51 51 50 49 47 45 44 44 45 44 42 40 38 37 36 36 35 34 32 31 30 28 27 26 24 23 22 22 21 21 19 18 18 17 16 15 15 14 14 14 15 15 15 15 16 16 17 17 18 19 19 20 20 20 21
15 16 17 18 20 22 23 25 26 27 29 31 32 34 37 39 41 43 45 47 49 51 52 53 54 53 53 53 52 52 52 52 51 51 49 46 44 43 44 43 40 37 36 37 37 36 36 34 33 32 31 29 27 27 25 24 24 23 22 22 20 19 18 18 18 17 16 15 15 15 15 15 16 16 16 17 18 18 19 19 19 19 20 21 21
15 15 16 18 19 20 22 24 25 26 28 29 31 33 35 37 40 42 44 46 48 49 50 52 52 52 53 53 52 52 53 53 53 51 50 48 45 43 43 42 39 37 37 38 38 38 37 35 34 33 32 30 29 28 27 26 25 25 23 22 21 20 19 19 19 18 17 16 16 16 16 16 16 17 17 18 18 19 19 20 20 20 20 21 21
15 16 17 18 19 20 21 22 23 25 26 28 30 31 33 35 38 40 42 44 46 47 48 49 50 51 52 53 53 53 54 54 53 52 51 49 47 45 44 43 42 40 39 39 40 39 37 35 35 34 32 31 30 30 29 27 26 25 24 23 22 21 20 20 20 20 18 18 17 17 16 16 17 18 18 19 19 19 20 21 21 21 21 22 22
16 17 18 18 19 20 21 22 23 24 26 27 29 30 32 33 35 37 39 41 43 44 46 47 48 50 51 52 53 53 53 53 53 52 50 49 49 48 47 44 42 40 40 40 40 39 38 37 36 35 33 32 32 31 30 29 27 26 25 24 23 22 21 22 22 21 20 19 19 18 18 18 18 19 20 20 20 21 21 21 22 22 22 23 23
17 18 18 19 20 20 21 21 22 24 25 26 27 29 30 31 33 34 36 38 39 41 42 44 46 48 49 50 51 52 52 52 51 51 50 49 49 48 46 43 40 39 40 41 42 41 40 39 37 35 34 34 33 32 31 30 28 27 26 26 24 23 23 23 23 22 21 22 21 20 20 20 20 20 21 21 22 22 22 22 23 23 23 24 24
18 19 19 20 21 21 22 22 23 24 25 26 27 28 29 30 31 32 34 35 36 38 39 41 42 44 46 47 48 49 49 49 49 48 48 47 47 46 46 45 42 40 41 43 43 43 41 39 37 36 36 35 33 32 31 30 30 29 27 26 26 25 24 24 24 23 23 23 23 23 22 22 22 22 22 22 23 23 23 23 23 24 24 24 25
19 20 21 21 22 22 23 23 24 25 25 26 27 28 29 30 31 31 32 33 34 35 37 38 40 41 43 44 45 46 46 46 46 46 46 46 46 46 46 45 42 40 40 42 43 43 41 39 38 37 36 35 33 32 32 32 30 29 28 27 27 26 26 25 25 24 25 25 25 25 25 25 25 24 24 24 25 25 25 24 24 24 25 25 25
20 21 21 22 23 23 24 24 25 25 26 27 28 28 29 30 31 32 32 33 34 34 35 36 37 38 40 41 42 42 43 43 43 44 44 44 44 44 43 42 40 39 40 41 43 43 41 40 39 38 36 35 34 33 33 31 30 29 29 29 28 28 27 26 26 26 26 27 27 27 27 27 27 26 26 26 26 27 26 25 25 25 25 25 25
22 22 23 23 24 24 25 25 26 26 27 27 28 29 30 31 31 32 32 33 34 34 34 35 35 35 36 36 37 37 39 39 40 40 40 40 40 40 40 39 39 39 39 41 43 43 42 41 39 38 37 36 35 34 32 31 30 30 30 30 30 29 28 27 27 27 28 28 29 29 29 29 29 28 27 27 28 28 27 27 26 26 26 26 26
Wind_Direction
237 237 237 237 237 236 236 235 233 233 232 231 233 235 235 236 236 235 231 227 226 226 228 227 227 235 238 230 222 224 236 235 225 223 222 218 216 215 218 225 241 251 251 245 230 204 192 191 195 204 216 233 254 278 301 309 310 312 313 317 320 320 322 325 329 336 344 345 342 340 341 339 337 337 337 337 338 338 338 338 338 338 338 338 340
238 238 238 237 236 235 233 232 231 230 230 230 232 233 234 235 234 231 228 225 224 227 227 222 229 238 228 216 214 221 225 219 213 213 212 212 217 226 236 243 248 244 232 217 202 192 189 192 200 211 223 241 267 290 300 303 305 308 311 313 314 315 320 326 330 333 337 339 338 336 337 337 336 336 336 337 338 337 337 338 338 338 339 340 342
233 233 233 233 233 231 230 229 228 228 229 231 232 234 235 233 229 228 226 222 220 221 220 223 233 226 211 212 225 225 217 208 208 218 223 222 230 241 245 242 234 220 206 196 191 191 192 195 204 215 230 256 280 290 294 298 302 306 307 307 309 314 321 326 328 329 330 333 334 334 335 337 337 336 336 337 337 336 336 337 338 339 341 341 344
227 227 227 228 227 227 227 226 227 228 230 231 232 234 232 227 225 222 218 217 217 217 218 223 220 208 209 234 239 222 217 218 225 241 245 239 238 235 229 218 203 193 190 191 190 192 194 198 210 225 247 270 281 286 291 296 299 300 300 302 308 315 319 323 324 325 326 329 332 335 336 337 338 338 336 336 336 336 336 337 338 339 341 341 344
216 216 216 217 218 220 221 223 225 226 228 229 229 228 226 221 218 214 215 219 218 214 211 208 207 212 231 246 239 225 222 222 230 241 245 243 231 213 202 193 186 184 186 189 191 193 199 208 224 242 262 273 280 287 292 294 294 294 296 302 309 314 317 319 321 323 326 330 333 336 338 338 338 339 338 336 335 336 336 337 339 340 341 341 344
205 204 205 206 209 212 214 218 221 222 224 223 220 220 219 217 212 209 213 216 211 205 202 201 207 220 232 232 228 225 224 227 235 238 236 228 208 191 187 185 184 186 187 188 191 197 208 222 238 254 267 276 283 288 290 289 290 293 299 306 310 313 316 319 322 326 330 333 335 336 339 340 339 339 340 339 339 339 338 338 339 341 342 341 343
200 198 200 201 203 207 210 214 215 216 216 212 210 212 213 209 206 205 206 206 203 200 198 199 206 218 224 223 222 223 231 240 239 227 215 204 191 185 185 185 185 185 186 189 196 205 218 232 249 264 273 281 285 286 287 287 292 300 306 309 311 315 320 324 328 331 333 337 338 339 340 341 341 341 341 342 342 343 342 339 338 340 341 341 341
198 196 198 201 202 203 206 209 209 209 207 203 204 208 206 199 197 197 196 199 200 199 201 208 220 228 230 230 230 233 236 232 217 199 192 189 186 185 186 186 186 187 189 196 204 214 227 240 257 270 276 282 283 282 286 291 300 308 309 311 316 322 328 332 334 335 337 340 342 342 342 342 342 342 343 345 344 344 344 340 337 339 340 340 341
200 199 200 202 204 203 205 208 207 206 204 200 202 202 194 189 192 194 195 199 202 206 214 224 232 235 236 234 231 227 217 203 192 187 187 186 185 185 184 185 188 192 198 204 211 222 235 251 265 272 275 278 280 284 291 298 305 309 311 317 324 329 335 337 338 339 341 343 344 344 344 345 346 345 346 348 345 342 342 340 338 338 338 337 339
204 204 203 204 206 206 207 209 208 207 202 198 202 201 192 191 196 201 204 207 211 217 223 228 233 234 229 219 209 198 190 186 183 183 187 188 186 185 185 188 192 199 206 210 219 232 245 258 266 270 274 278 282 290 296 301 306 312 319 325 330 334 337 340 342 343 344 346 347 346 345 347 350 349 347 345 342 339 340 340 338 337 336 335 336
208 209 207 207 210 209 210 212 210 207 199 194 199 202 200 202 205 208 213 214 216 222 227 227 223 213 201 194 189 184 182 181 181 181 183 185 186 188 191 194 198 204 209 216 230 243 252 260 264 269 275 280 286 293 298 305 312 320 327 331 335 339 341 344 347 348 348 348 350 349 347 348 351 350 345 342 340 340 340 337 336 335 335 333 332
213 213 211 211 213 212 213 212 211 211 204 197 199 202 203 206 208 212 216 218 223 229 226 214 203 194 189 187 185 182 181 181 182 182 182 183 187 192 196 200 204 208 214 224 237 244 251 259 264 270 275 279 287 294 302 311 320 328 333 337 341 345 347 349 350 351 351 350 351 353 350 348 349 347 343 341 341 340 338 336 336 335 333 330 328
218 218 217 217 216 216 216 214 211 213 211 206 206 209 211 213 213 216 220 224 229 230 218 203 197 192 188 186 184 183 184 184 184 185 186 188 191 195 200 204 208 213 222 230 237 245 253 259 263 267 273 280 289 298 307 316 325 332 338 343 346 348 350 353 353 352 351 350 352 354 352 348 347 345 344 343 340 338 336 336 337 334 330 329 328
223 222 223 223 221 220 220 219 217 216 214 212 212 214 218 221 222 223 225 228 226 218 206 198 195 190 186 186 186 186 187 187 188 188 190 193 195 199 204 207 212 218 226 232 240 248 254 258 260 264 272 281 292 302 310 320 329 336 343 347 348 350 352 353 353 352 352 352 351 353 352 348 346 346 346 343 338 336 335 335 336 332 329 330 330
225 224 225 225 225 224 222 222 221 219 218 219 219 220 222 224 226 227 226 221 213 205 200 197 193 188 186 187 189 189 189 190 191 191 193 196 199 203 206 211 217 222 227 235 244 250 254 256 259 266 275 283 295 305 312 323 332 338 346 348 348 351 352 351 352 351 351 352 351 351 350 348 347 347 345 340 336 334 334 333 332 330 329 331 333
225 223 223 223 224 224 224 224 223 222 222 222 223 224 225 226 227 224 216 208 203 201 199 196 193 190 188 189 192 193 192 192 193 194 197 200 203 206 210 215 220 224 231 239 245 249 252 256 261 271 281 288 299 308 313 323 332 339 346 347 347 351 351 351 351 350 350 351 351 350 349 347 347 346 342 338 335 333 332 331 331 331 332 334 337
227 224 221 221 222 222 223 225 225 224 224 225 225 225 224 223 221 215 208 204 201 199 196 194 193 193 192 192 194 196 195 194 196 198 200 203 207 210 214 218 221 227 234 239 243 247 251 257 263 271 281 289 298 305 311 321 331 338 342 344 345 348 349 350 350 349 350 351 350 348 347 346 345 343 340 337 334 332 331 332 334 336 338 339 339
229 226 222 221 221 222 222 223 224 224 224 225 225 224 222 220 216 211 207 205 202 198 195 194 193 194 196 196 196 198 199 198 199 201 203 207 210 213 217 221 225 230 235 238 242 244 249 257 263 269 278 284 291 299 307 318 327 333 335 338 342 344 346 347 349 350 350 349 347 346 344 343 342 341 339 336 333 333 334 335 339 341 341 340 339
231 230 226 223 222 223 223 223 224 224 225 225 225 225 223 219 215 210 207 205 201 198 196 195 195 195 197 199 198 200 203 203 203 204 207 210 213 216 220 224 229 235 238 239 242 244 249 255 260 267 274 279 287 297 307 315 322 327 330 333 338 342 344 346 348 349 349 347 344 342 341 340 340 340 338 335 334 335 338 340 342 343 342 342 341
233 233 231 226 224 225 225 225 225 225 226 226 225 225 223 219 215 211 206 202 200 199 197 198 199 199 198 200 200 201 204 206 206 207 210 213 216 219 222 227 233 238 240 240 243 246 249 253 257 264 271 279 287 296 306 313 318 323 328 331 336 341 344 347 348 348 347 345 341 339 339 339 339 339 337 335 335 337 340 343 344 345 344 343 343
236 234 233 229 226 226 225 226 226 225 226 227 225 224 222 219 217 212 206 201 199 200 200 200 201 202 201 201 202 202 204 207 209 211 213 215 217 220 224 230 234 238 240 242 245 248 250 253 258 263 270 279 287 295 304 311 317 322 328 332 337 342 345 347 347 346 344 341 338 337 337 338 338 338 337 337 337 339 341 343 344 346 346 345 344
238 236 234 231 229 228 226 226 226 225 226 226 224 223 221 218 216 212 207 203 201 201 203 203 203 205 204 202 203 203 205 207 210 213 215 216 219 222 225 231 236 238 242 245 247 250 251 253 258 262 269 278 286 295 303 310 317 322 328 333 338 342 344 345 345 343 340 337 335 335 335 335 337 338 340 341 341 340 341 341 343 344 346 347 345
239 237 236 234 231 229 229 228 227 227 227 226 224 223 220 217 213 209 207 205 204 203 205 206 206 206 205 204 204 205 207 209 211 213 216 217 220 224 227 232 237 240 245 248 250 251 253 254 257 262 269 277 285 294 302 309 316 321 328 334 337 340 342 342 341 339 335 334 333 332 333 335 337 340 344 344 343 342 341 341 341 341 342 346 348
239 237 236 235 233 231 231 231 230 230 229 228 225 222 219 216 212 209 207 208 208 207 208 209 209 208 207 207 206 207 209 211 212 214 216 219 222 226 229 234 239 243 246 248 250 251 252 255 258 263 270 277 284 293 299 306 313 319 326 331 334 337 338 338 336 334 332 331 331 332 334 337 339 343 345 346 344 342 342 341 341 340 339 342 346
240 238 236 235 234 233 232 232 233 233 231 230 227 223 219 215 212 210 209 209 211 211 211 211 211 210 210 211 211 211 211 212 213 215 217 219 222 225 229 237 243 246 246 247 249 250 251 255 259 263 269 275 281 288 294 300 309 316 322 327 330 333 333 332 331 330 330 330 331 333 336 339 342 344 346 345 344 341 342 342 343 342 340 340 342
242 240 238 237 236 236 235 234 235 234 232 230 228 225 222 218 215 213 212 212 213 214 214 214 213 213 214 214 215 215 215 214 215 216 218 220 222 226 234 241 243 243 242 243 245 246 249 254 257 260 265 270 275 281 287 295 303 310 317 322 325 327 327 326 327 328 329 330 331 334 337 339 342 345 345 345 344 343 343 343 344 344 343 341 342
240 240 239 238 238 239 238 237 236 235 232 229 226 223 221 219 218 217 216 215 215 215 216 217 216 216 217 217 217 218 218 217 217 218 220 221 224 232 240 243 241 240 240 241 242 244 248 252 254 256 260 264 269 274 281 289 297 304 312 317 319 321 321 323 325 327 329 330 331 333 336 339 341 343 345 346 346 345 345 344 345 346 345 344 343
237 238 239 240 240 241 241 240 238 236 234 231 227 223 221 219 220 221 222 221 220 218 218 218 219 220 220 220 219 219 219 220 221 222 223 225 233 242 245 243 241 239 239 239 240 242 246 248 250 253 256 260 265 270 276 284 292 300 307 310 312 315 317 320 324 327 328 328 329 331 334 337 339 341 344 346 346 345 346 346 346 346 346 346 345
237 238 239 240 241 241 241 241 239 237 235 232 229 226 224 223 223 223 225 227 228 228 226 225 224 225 225 225 224 222 222 224 225 224 226 235 246 250 248 245 243 240 238 239 240 242 245 246 248 251 253 256 261 265 270 279 287 294 300 303 306 309 313 316 321 323 323 325 326 328 331 335 338 339 341 343 345 346 346 347 347 346 347 347 347
242 241 242 243 242 243 242 241 239 237 235 233 230 227 225 224 225 225 226 227 228 230 231 231 231 230 229 230 230 230 231 232 228 225 232 244 250 248 244 241 240 238 237 238 238 241 244 246 248 250 252 254 258 261 267 275 282 287 292 296 299 304 309 313 317 319 321 323 325 327 329 332 336 337 338 340 343 345 345 346 346 346 347 347 347
250 250 250 249 249 248 247 245 242 239 237 234 231 228 226 225 225 225 226 227 227 228 229 230 231 232 232 232 232 232 233 230 226 231 242 247 246 244 241 238 237 238 238 240 241 243 245 246 248 250 251 253 257 260 264 270 276 282 286 290 295 301 306 310 313 315 318 321 322 324 328 330 333 335 336 338 340 342 343 343 344 345 347 347 347
255 256 257 257 256 254 252 249 245 241 238 235 231 230 229 227 226 225 224 225 227 228 229 230 231 232 233 232 232 232 230 225 226 239 249 248 243 241 239 239 239 239 238 238 240 242 245 247 248 250 252 254 256 259 262 266 271 276 281 286 292 298 302 305 309 312 315 318 320 323 326 328 330 333 335 336 337 339 339 340 342 344 345 346 347
257 259 259 260 259 257 254 251 247 243 240 238 234 232 231 230 229 228 227 226 226 227 229 230 231 231 231 230 230 231 230 229 233 245 252 249 242 240 239 239 239 239 238 239 241 243 244 246 247 249 251 253 255 257 259 262 265 269 276 282 287 293 296 299 304 309 312 315 319 323 325 326 328 331 333 334 335 336 337 337 340 342 342 343 345
256 257 258 259 259 259 257 254 251 247 244 241 239 236 235 234 233 233 231 230 229 228 228 229 230 231 231 230 230 229 229 229 235 245 252 248 242 239 239 237 237 238 239 239 240 242 244 245 247 249 250 252 254 256 256 258 262 266 271 277 282 286 290 295 300 305 309 313 318 322 323 324 326 328 330 332 333 333 335 335 337 339 341 341 343
254 255 256 258 258 258 257 255 253 251 248 245 242 240 239 238 237 236 236 235 235 234 233 232 231 231 230 230 230 230 229 230 234 244 250 247 240 238 237 236 236 238 239 239 239 242 244 245 246 248 249 250 252 254 254 257 261 265 269 273 278 281 286 291 296 301 306 311 316 319 320 322 325 326 328 331 333 332 333 335 336 338 339 340 340
253 254 256 257 258 259 259 257 255 254 252 250 248 245 243 242 240 239 239 238 238 238 238 237 235 233 231 230 229 229 229 230 234 244 250 246 240 238 239 239 240 242 243 243 243 243 243 243 244 245 247 249 251 251 253 255 259 263 267 271 274 278 282 288 292 298 305 310 313 316 319 321 323 326 328 330 332 331 331 333 335 337 338 337 338
254 255 256 258 259 260 259 258 257 254 252 251 249 248 246 244 242 241 240 239 239 239 239 238 237 235 234 232 231 230 230 231 237 246 249 245 239 239 241 242 243 244 246 245 244 243 243 243 244 245 247 249 249 249 251 253 257 261 264 266 269 274 278 283 288 294 301 306 308 313 317 320 322 326 328 329 330 331 331 332 333 335 335 334 335
254 256 257 258 259 258 257 256 255 253 251 249 248 247 247 245 243 242 241 241 241 240 239 240 239 238 239 238 236 234 233 232 236 244 247 244 240 239 242 243 243 243 244 244 243 244 244 244 245 246 247 248 248 248 249 251 255 258 261 263 265 269 273 277 283 289 294 300 304 309 314 319 323 326 328 329 330 331 331 332 332 332 332 331 331
257 258 259 260 259 259 258 257 256 254 253 251 249 248 247 246 245 244 243 242 241 240 240 241 241 241 241 240 239 237 235 234 237 244 249 249 245 243 245 247 246 245 244 243 243 244 245 245 246 246 246 247 248 247 248 250 253 255 257 259 262 266 269 272 277 284 289 295 300 304 310 317 323 326 328 329 331 332 331 331 331 330 329 328 328
263 262 261 260 260 261 260 259 257 256 254 254 253 251 250 249 248 247 245 244 243 243 243 243 244 244 244 243 242 241 239 239 242 247 253 256 253 249 248 250 251 249 247 245 245 247 248 247 247 247 246 247 248 248 248 250 251 253 255 257 259 263 266 268 273 279 284 289 294 299 306 312 317 322 326 328 331 333 331 331 331 329 326 325 324
266 265 263 261 260 260 259 259 259 258 257 257 256 255 254 253 252 251 249 248 247 246 245 246 246 246 246 245 245 245 245 245 247 250 254 258 258 254 252 254 255 254 251 248 248 249 249 248 248 247 247 247 248 249 249 250 251 253 254 255 256 259 262 266 269 273 278 283 287 293 300 304 309 315 321 324 328 331 331 331 330 327 324 322 322
272 270 268 266 263 262 261 260 261 261 261 260 259 258 257 257 256 254 253 252 250 249 248 248 248 248 247 247 247 247 247 248 248 250 252 255 257 257 257 257 257 257 254 252 251 250 248 248 247 248 248 249 250 251 252 252 253 253 254 254 255 256 259 263 266 269 273 277 282 288 294 299 304 310 315 318 322 326 328 329 329 326 324 322 321
280 278 276 273 270 268 266 265 264 263 263 262 262 262 262 261 259 258 257 256 254 253 252 252 251 251 251 251 250 249 249 249 249 250 251 252 256 260 261 260 259 259 255 251 248 247 246 246 246 248 249 250 250 251 252 251 251 252 252 253 254 255 257 262 265 267 271 275 279 285 290 296 302 307 311 314 317 320 323 325 326 326 324 322 320
292 288 285 281 278 275 272 269 267 266 265 265 265 265 264 264 263 262 260 260 259 258 257 257 256 255 254 253 252 251 252 252 251 252 253 253 256 262 263 262 262 260 254 248 246 245 244 245 246 247 248 248 248 250 251 251 251 252 252 252 253 255 257 260 263 266 269 273 278 283 288 294 300 305 308 310 314 316 317 319 321 322 323 321 320
299 296 294 292 288 285 281 277 274 271 269 267 266 265 265 266 266 265 265 264 263 262 261 260 259 259 258 257 256 255 255 256 256 256 256 257 259 263 265 265 264 260 254 247 245 245 246 247 247 247 247 248 249 250 251 250 250 251 251 252 254 255 256 258 261 265 269 273 276 281 286 292 297 301 304 308 311 313 314 314 315 317 319 320 319
302 301 300 298 296 293 291 288 284 281 278 275 272 270 268 268 268 268 268 268 267 266 265 263 262 261 260 259 258 257 257 257 257 257 257 260 262 264 265 266 266 261 254 249 247 247 248 248 247 247 247 248 249 249 248 248 249 250 251 253 253 254 255 258 261 266 270 273 276 280 286 291 295 298 301 305 308 310 311 311 312 314 315 316 315
305 303 301 300 299 298 296 294 291 289 287 284 282 279 277 274 273 271 271 270 270 269 268 267 266 265 264 263 262 261 260 260 259 259 260 263 264 264 265 268 266 260 254 250 248 248 247 246 245 246 246 246 246 246 247 247 249 250 251 252 252 253 255 258 262 267 271 274 278 281 285 289 293 295 299 303 305 307 309 310 310 310 311 311 311
307 306 304 303 301 299 298 296 294 292 290 289 288 286 284 282 280 277 275 274 272 271 270 268 267 267 267 267 267 267 266 266 266 266 266 267 266 266 267 267 263 256 252 250 249 247 246 246 246 246 245 244 244 245 246 248 249 250 251 251 252 253 255 259 263 267 271 274 278 282 286 289 291 294 298 301 303 305 306 307 307 306 306 307 308
309 308 307 305 304 301 299 297 294 293 292 290 289 288 287 285 284 283 281 279 277 275 273 272 270 269 268 268 268 268 268 267 267 267 267 267 267 266 266 264 259 254 252 249 247 246 245 246 245 244 243 242 243 243 245 247 249 249 250 251 252 254 256 260 264 268 271 275 278 282 285 288 291 293 297 300 301 303 304 304 303 302 302 303 304
309 308 306 305 304 302 299 297 295 294 292 291 289 289 288 286 285 285 284 283 281 279 277 276 274 273 272 271 270 270 269 268 267 267 267 266 266 265 264 261 258 255 251 247 245 245 246 245 244 243 242 241 242 242 244 246 248 248 250 252 253 255 258 261 264 268 271 275 278 281 284 287 290 293 296 298 299 300 301 300 300 299 298 299 300
307 306 304 303 301 299 297 296 294 292 290 289 288 287 286 285 285 284 283 282 282 281 280 279 278 276 274 273 272 271 270 269 268 267 266 265 264 263 261 259 258 255 251 247 246 246 246 245 244 243 242 241 241 243 244 245 245 247 249 252 254 256 259 262 265 269 272 275 278 281 283 286 289 292 294 296 297 297 297 297 297 297 296 296 298